COSMOS 1275 DEB

Satellite information

Favourite Embed

Satellite Type and Status

DEBRISIN ORBIT

Key statistics

Satellite COSMOS 1275 DEB at a glance.

Uptime

16264

Days in orbit

Revolutions

≈ 14.3

Per day

Orbit

LEO

Low Earth Orbit

Inclination

82.9

Latest

Satellite identification and parameters

Extended collection of information and parameters for COSMOS 1275 DEB.

Object identification

Identified? True

Debris? True

Object name: COSMOS 1275 DEB

International designator: 1981-053HB

Object number (NORAD): 13807

Object ID (CCSDS): 13807

Country: COMMONWEALTH OF INDEPENDENT STATES (CIS)

Current information (Y/N): Y

RCS size: SMALL

Orbital parameters

Period: 100.671 minutes

Inclination: 82.9483 deg

SMA: 7168.547 km

Apoapsis: 798.629 km

Periapsis: 782.195 km

RAAN: 177.2186 deg

Eccentricy: 0.00114623

Argument of periapsis: 263.8282 deg

Mean anomaly: 96.1599 deg

Mean motion: 14.30395227 rev/day

Mean motion (dot): 0.00004188 rev/day2

B* drag term: 0.0016038076 1/REarth

Two-line elements (TLE)

Creation date: Dec. 12, 2025, 10:14 a.m.

Reference frame: TEME

Reference center: EARTH

Epoch: Dec. 12, 2025, 6:45 a.m. UTC

TLE line 0: 0 COSMOS 1275 DEB

TLE line 1: 1 13807U 81053HB 25346.28169702 .00004188 00000-0 16038-2 0 9992

TLE line 2: 2 13807 82.9483 177.2186 0011462 263.8282 96.1599 14.30395227952913

Live tracking on map

Real-time ground track for satellite COSMOS 1275 DEB.

In-orbit conjunctions

A list of the most updated potential collisions computed for object COSMOS 1275 DEB.

Target Orbit TCA Probability of collision Miss distance Type
DMSP 5D-3 F17 DEB SSO 2025-05-03 21:09:10 0.0007476462 91.0 (m) DEBRIS
CZ-6A DEB LEO 2025-02-22 11:24:54 0.0001076503 864.0 (m) DEBRIS
CZ-6A DEB LEO 2024-10-10 13:38:29 0.0005438421 661.0 (m) DEBRIS
NOAA 16 DEB SSO 2024-09-28 12:58:09 0.0001994454 362.0 (m) DEBRIS
NOAA 16 DEB SSO 2024-09-28 01:11:52 0.0003488373 812.0 (m) DEBRIS

Associated space launch

Navigation satellite providing location information for the Tsiklon-B navigation system

COSMOS 1275 DEB was lifted into orbit during the mission ‘Kosmos-3M | Parus 27’, on board a Kosmos-3M space rocket.

The launch took place on June 4, 1981, 3:41 p.m. from 132/2.

For more information about the launch, click the button.

Launch to space Kosmos-3M | Parus 27
Kosmos-3M | Parus 27

Agency: N/A

Status: Launch Successful

Launch date: June 4, 1981, 3:41 p.m. UTC

Rocket: Kosmos-3M

Launch pad: 132/2

Location: Plesetsk Cosmodrome, Russian Federation

...

Latest news about this satellite

There are no fresh news available about this satellite. Check back as we update our databases every day.


Newsletter sign-up

Weekly statistics, charts and insights to help you stay on top of the space industry.